Вернуться в каталог

FENGYUN 1C DEB

АктивенPO
NORAD 30386·DEBRIS·🇨🇳 China

Запущен May 10, 1999 с Taiyuan Satellite Launch Center

Loading…

Ближайшие Пролёты (ближайшие 24 часа)

TLE

СвежийSource: Space-Track

Эпоха: Sep 14, 2026, 02:34 UTC

1 30386U 99025ACZ 26257.10734729  .00000855  00000-0  94184-3 0  9997
2 30386  98.6710 125.1596 0302271 161.4437 352.1699 13.56349929965616

Отслеживайте FENGYUN 1C DEB в реальном времени с AllMySat

Download on the App Store